Location: Lombard
(41.8800°N, 88.0080°W)
Time: 12:58:59
(UTC-05:00)

A-11 Canister half - Pass Details

Date: 03 February 2023
Orbit: 1512 x 1687 km, 47.2° (Epoch: 20 March)

Event Time Altitude Azimuth Distance (km) Brightness Sun altitude
Rises 12:17:29 0° 257° (WSW) 4,830 11.8 31.6°
Reaches altitude 10° 12:20:40 10° 259° (W) 3,821 11.3 31.6°
Maximum altitude 12:30:21 72° 344° (NNW) 1,628 9.5 31.4°
Drops below altitude 10° 12:39:43 10° 69° (ENE) 3,701 10.8 31.2°
Sets 12:42:45 0° 72° (ENE) 4,671 11.3 31.1°
